Location: Hemaruka
(51.7801°N, 111.0917°W)
Time: 18:23:37
(UTC+00:00)

MOZHAYETS 4 - Pass Details

Date: 10 December 2023
Orbit: 654 x 672 km, 98.3° (Epoch: 23 February)

Event Time Altitude Azimuth Distance (km) Brightness Sun altitude
Rises 23:54:44 0° 12° (NNE) 3,039 10.7 -6.1°
Reaches altitude 10° 23:57:00 10° 9° (N) 2,121 9.9 -6.4°
Maximum altitude 00:01:35 64° 289° (WNW) 754 8.2 -7.0°
Drops below altitude 10° 00:06:07 10° 209° (SSW) 2,103 11.3 -7.6°
Sets 00:08:21 0° 206° (SSW) 3,011 12.1 -7.9°
